Location: Taukkyan
(23.1052°N, 94.0030°E)
Time: 11:45:19
(UTC+00:00)

NOSS 3-2 (A) - Pass Details

Date: 06 July 2020
Orbit: 798 x 1410 km, 63.4° (Epoch: 12 August)

Event Time Altitude Azimuth Distance (km) Brightness Sun altitude
Exits shadow 22:29:40 - 217° (SW) 2,634 5.2 -7.9°
Reaches altitude 10° 22:30:22 10° 219° (SW) 2,367 5.0 -7.8°
Maximum altitude 22:35:39 59° 298° (WNW) 955 3.4 -6.7°
Drops below altitude 10° 22:41:25 10° 18° (NNE) 2,568 6.5 -5.5°
Sets 22:44:07 0° 22° (NNE) 3,591 7.3 -5.0°
